Temp
9 9 10 10 10 10 10 10 10 9 10 10 11 14 14 15 15 15 15 16 15 15 14 14 13 14 13 12 12 13 13 13 13 13 13 11 12 13 12 11 12 14 15 17 17 16 16
9 9 9 9 9 9 10 10 10 10 9 10 13 14 15 15 15 16 16 16 16 15 15 14 14 14 13 11 13 13 13 13 13 13 12 13 13 12 12 12 12 13 14 14 16 17 17
9 9 9 9 9 9 10 10 9 10 10 11 14 14 15 15 15 16 16 16 16 16 15 14 14 13 12 12 14 14 14 14 13 13 12 12 12 13 12 12 12 13 13 15 16 17 18
9 9 9 9 9 9 9 9 9 9 10 14 14 14 14 15 15 15 16 16 16 15 15 14 14 13 12 14 14 14 14 13 13 13 12 12 12 11 12 13 13 13 13 14 17 17 18
9 9 9 9 9 9 9 9 10 10 12 14 14 14 14 14 15 15 16 16 16 16 15 15 14 14 13 15 14 14 14 14 13 12 12 12 12 11 12 12 13 13 12 15 18 18 17
9 9 9 9 9 9 10 10 11 13 12 14 14 14 14 14 15 15 16 17 16 16 15 15 14 13 14 13 14 14 14 14 13 13 12 12 12 11 11 12 12 14 15 17 16 18 16
8 9 8 9 9 10 11 12 12 13 14 14 15 14 14 14 14 15 16 16 14 13 15 14 15 14 14 15 15 15 15 14 14 13 13 13 12 12 13 14 16 17 17 17 17 18 16
8 8 8 10 11 11 11 12 12 13 14 15 14 14 14 14 14 15 15 13 13 13 14 15 14 14 15 15 14 15 15 14 13 12 12 12 13 14 14 15 16 16 16 17 18 18 17
8 8 9 10 11 11 11 12 12 13 15 15 14 14 14 14 14 15 14 12 12 12 13 15 14 15 15 15 14 14 15 13 13 13 12 12 14 14 15 15 15 16 16 16 16 18 16
8 8 9 10 10 11 11 11 12 13 15 15 14 14 14 14 14 14 12 12 12 12 8 13 15 16 16 15 14 15 15 14 14 14 13 13 14 15 16 16 14 16 16 17 16 15 13
8 8 9 10 10 11 11 11 12 12 15 15 14 14 14 14 14 13 12 12 12 12 9 15 15 17 16 15 15 16 15 15 14 14 14 14 14 14 15 15 14 16 15 17 16 14 14
7 8 9 10 10 11 11 11 12 13 15 15 14 15 14 14 14 12 12 13 12 9 10 14 16 15 15 16 16 15 15 14 15 15 15 15 15 15 14 14 14 15 16 15 13 13 11
8 8 9 9 10 10 11 11 12 13 14 15 14 14 14 13 13 13 12 12 10 9 13 14 14 14 14 15 15 15 14 12 12 11 10 12 15 14 14 13 15 15 13 10 13 11 13
8 8 9 9 10 10 11 11 12 14 14 15 14 14 14 13 13 12 12 10 11 12 13 14 15 14 15 15 16 14 13 11 13 12 7 10 11 14 14 14 14 14 13 10 14 12 13
8 8 9 9 10 10 10 11 12 14 15 15 14 14 14 13 12 12 10 8 10 11 13 13 14 14 13 15 15 14 13 12 13 12 13 11 14 15 14 14 14 16 12 14 13 12 10
8 8 9 9 9 10 10 11 12 14 15 15 14 14 13 13 12 12 9 11 12 13 14 14 13 14 14 13 14 14 13 13 12 13 12 14 14 15 15 14 15 16 15 14 11 16 16
8 8 9 9 9 10 10 11 11 13 15 15 14 12 13 13 12 9 9 10 13 14 13 13 13 13 14 14 13 13 13 13 12 12 12 13 13 15 15 15 15 14 15 15 13 12 14
8 8 9 9 9 10 10 11 11 12 15 14 12 12 13 12 12 7 11 14 13 14 13 14 13 14 14 14 14 14 14 13 12 12 12 12 12 12 15 14 14 14 14 13 12 15 11
8 9 9 9 9 10 10 11 11 12 12 12 10 10 13 12 13 11 12 14 13 14 13 14 14 14 14 14 14 14 14 13 12 12 13 12 12 9 13 13 13 14 14 14 12 10 13
9 9 9 9 9 10 10 11 11 12 12 12 10 11 10 8 9 12 13 14 14 13 13 14 14 14 14 14 13 14 14 13 12 12 12 11 11 12 12 14 13 14 14 14 12 9 12
9 9 9 9 9 10 10 11 11 12 13 13 8 11 10 12 12 13 14 14 14 14 12 13 14 13 14 14 14 14 14 13 12 13 12 11 12 11 11 11 12 13 13 13 13 13 13
9 9 9 9 9 9 10 10 11 12 13 12 10 11 9 10 12 13 13 13 13 14 13 13 12 14 13 13 14 14 13 12 13 12 12 10 11 12 11 13 12 12 11 11 11 12 12
9 9 9 9 9 9 10 10 11 12 13 11 9 9 9 10 11 11 11 13 14 14 14 14 13 13 13 13 12 12 11 10 12 12 11 11 10 10 12 11 11 12 11 10 11 11 12
9 9 9 9 9 9 9 10 10 11 12 11 10 9 9 11 10 11 14 14 13 13 14 13 13 13 12 11 11 11 10 10 11 11 9 10 10 8 8 10 12 15 13 12 12 13 11
9 9 9 9 9 9 9 9 10 10 11 11 10 9 8 10 10 12 13 13 13 12 12 13 11 10 9 11 11 11 10 11 10 10 10 9 9 10 9 9 12 13 13 12 12 15 11
10 10 9 9 9 10 9 9 9 10 10 10 10 10 7 9 10 12 11 12 10 10 10 11 10 9 10 9 10 12 12 13 11 10 9 8 8 9 9 11 14 15 13 13 14 13 13
9 9 9 9 9 9 9 8 8 9 10 10 10 10 9 7 8 10 10 10 9 9 9 10 10 9 9 8 10 10 11 12 12 11 9 8 8 9 8 9 10 12 12 13 15 14 12
6 7 7 8 8 8 8 8 8 8 9 9 9 9 9 7 7 9 10 10 9 8 10 9 9 8 7 9 9 9 9 10 11 11 10 10 8 8 8 9 10 11 12 13 13 12 13
4 4 4 5 5 5 5 6 7 8 8 8 9 8 8 8 8 10 10 11 11 11 9 8 9 9 8 8 7 7 9 7 9 11 10 11 11 10 10 11 12 9 12 11 10 11 12
Height
855 853 851 849 847 845 842 839 836 834 832 830 828 826 825 825 823 821 819 817 814 812 810 809 808 806 804 806 807 802 799 798 796 796 796 797 799 800 802 803 803 799 795 790 787 787 786
855 853 851 849 847 845 842 839 836 833 831 828 826 825 824 823 822 820 818 816 813 811 810 809 808 807 805 811 804 801 800 798 796 795 795 794 796 799 801 801 802 797 795 795 787 785 783
856 853 851 849 848 845 842 838 835 832 829 827 825 823 822 821 820 819 817 815 813 811 810 809 808 808 808 809 803 801 799 798 796 796 795 795 795 797 800 800 800 797 798 792 787 783 782
856 854 851 850 848 845 842 839 835 832 828 825 823 821 820 819 818 817 816 814 812 811 810 809 808 808 809 805 803 800 799 798 797 796 797 797 798 800 801 800 800 799 799 800 781 780 780
857 855 852 850 848 845 842 838 834 830 827 824 822 820 818 817 816 816 815 813 811 810 809 808 808 808 810 804 802 800 798 798 798 798 798 798 799 802 801 802 802 800 808 794 784 777 780
857 855 853 850 847 844 841 837 834 830 826 822 820 818 816 815 814 814 813 811 810 810 808 807 808 813 806 806 802 799 797 797 796 797 799 798 799 801 803 804 806 795 794 786 788 779 783
857 855 853 850 847 844 841 838 833 829 825 821 819 817 815 813 812 812 812 811 813 813 810 812 811 810 806 805 800 798 796 796 796 796 798 796 801 799 791 789 780 779 782 785 781 776 787
857 855 853 849 847 844 841 838 834 829 825 820 818 816 814 812 811 812 812 813 815 817 816 810 809 808 805 805 803 797 797 798 799 801 798 803 799 791 787 782 779 779 785 787 781 777 783
857 855 852 850 847 844 841 837 833 829 825 820 817 815 813 811 811 812 812 816 816 816 818 811 808 807 806 805 803 799 796 797 798 799 801 802 795 788 784 788 789 783 787 789 787 781 787
857 855 852 849 846 843 840 837 833 829 824 819 816 815 812 811 813 812 814 816 816 817 841 821 810 806 804 803 804 796 796 798 795 798 798 800 793 788 787 788 792 787 782 778 784 792 812
857 854 852 849 846 843 840 836 832 828 823 819 816 814 813 810 812 812 815 815 816 818 866 818 810 804 802 807 804 798 797 797 800 800 800 802 798 795 791 791 791 786 784 781 786 798 802
856 854 851 848 845 842 839 836 831 827 822 818 815 815 813 812 812 814 814 815 817 847 860 824 810 811 810 804 803 799 798 798 796 797 797 798 794 793 794 789 790 787 784 791 799 805 828
854 853 850 847 845 842 838 835 830 826 822 817 815 814 813 813 813 813 814 816 842 858 830 826 821 815 815 810 805 803 805 811 813 823 823 809 799 797 797 798 788 789 803 837 822 832 824
853 852 850 847 844 841 837 834 830 826 821 815 814 814 814 813 813 813 815 825 847 839 828 820 818 817 814 811 806 810 814 823 812 813 840 833 827 805 800 802 803 801 805 835 820 828 820
851 850 849 846 843 840 837 833 829 825 820 816 813 813 813 813 813 814 820 850 844 837 826 827 820 821 822 813 812 812 817 821 815 814 818 824 809 799 798 796 798 796 815 804 814 821 837
848 847 846 845 842 840 836 833 828 823 819 815 814 812 812 813 813 814 829 835 830 825 823 824 826 821 824 822 817 815 819 816 817 813 813 810 812 799 797 798 797 795 799 810 821 807 805
845 845 844 842 841 839 836 832 828 822 818 814 814 815 813 813 814 819 840 837 824 820 822 824 824 824 822 823 822 821 820 815 816 816 813 812 814 805 799 802 801 802 801 803 811 815 815
841 841 841 840 838 837 835 831 827 822 818 814 814 824 814 814 822 834 830 821 821 821 821 820 820 820 822 819 818 817 818 816 815 815 815 815 815 817 802 801 801 801 800 806 819 803 819
837 837 838 837 836 835 833 831 827 824 819 817 819 819 814 814 825 831 826 821 820 820 820 819 819 817 816 819 818 814 813 812 813 814 814 816 817 837 810 808 803 803 799 799 809 820 810
831 832 833 834 833 832 831 829 827 824 820 819 820 825 818 816 821 821 821 821 821 819 819 817 817 815 817 816 816 813 811 811 812 812 814 818 819 817 820 804 806 804 800 799 807 835 811
825 827 829 830 830 829 828 827 826 823 820 819 822 821 821 823 820 818 818 817 818 818 819 817 815 817 815 817 815 815 813 813 813 812 814 817 818 820 812 811 807 803 802 801 804 800 803
818 821 824 825 825 826 824 825 824 821 819 819 824 822 823 822 818 816 818 816 816 812 816 815 820 812 814 816 813 813 814 816 814 815 814 821 820 814 812 802 807 805 805 808 807 801 802
812 815 817 820 822 821 821 820 821 819 817 817 819 820 820 822 820 822 818 810 809 809 810 809 812 814 813 813 812 813 814 817 816 816 820 820 823 827 813 812 811 803 796 800 798 797 793
805 808 811 814 817 816 817 817 817 818 817 816 817 819 822 819 821 817 809 807 809 809 810 809 810 811 815 814 814 814 814 814 815 815 820 821 822 835 833 816 812 785 785 789 790 787 791
798 801 805 808 811 811 813 814 814 816 815 815 815 816 820 821 817 812 810 808 808 810 811 810 813 814 812 815 818 816 820 814 815 817 818 823 826 825 833 828 798 786 786 789 790 779 784
791 793 798 802 803 805 809 809 810 813 813 813 812 813 816 820 814 807 812 809 815 816 816 812 816 816 814 819 820 812 811 805 813 820 821 824 827 829 832 820 800 780 782 781 781 789 776
783 786 789 793 796 800 803 804 806 809 811 812 809 810 812 818 810 808 814 812 811 815 816 815 814 817 816 824 823 824 816 805 807 810 824 826 831 829 831 827 805 782 780 779 785 787 776
775 778 782 786 789 793 796 799 801 804 807 809 807 807 809 813 808 805 805 809 809 812 813 815 817 819 825 822 825 822 822 810 807 804 811 812 826 828 831 826 815 780 783 784 775 771 771
776 778 782 783 786 789 792 794 797 799 802 805 806 805 807 807 806 803 802 804 804 802 807 813 812 813 815 821 825 825 817 820 812 803 802 804 794 799 799 789 773 778 771 771 772 773 771
Wind_Speed
10 10 11 12 13 13 14 13 13 12 11 10 8 6 6 6 7 9 12 15 11 10 9 8 9 14 3 4 2 9 12 10 6 4 7 4 0 3 3 1 3 10 4 9 13 8 9
9 10 11 12 13 14 15 15 14 13 11 10 7 7 7 7 7 9 12 16 10 8 9 6 7 9 4 4 7 10 12 10 9 5 2 5 5 4 3 1 1 2 2 7 7 9 6
9 9 11 12 13 13 15 16 15 14 12 9 7 8 9 9 9 9 10 14 7 8 6 5 6 5 3 2 7 11 11 7 5 7 3 2 5 2 1 4 5 2 2 5 6 6 5
9 9 10 11 12 14 14 16 16 15 12 7 7 8 10 10 10 9 9 12 7 7 5 5 6 2 2 7 8 8 8 3 7 5 7 4 5 5 2 3 2 1 2 2 4 6 1
9 9 10 11 13 14 15 16 17 17 15 8 8 8 10 10 10 9 8 11 7 7 5 5 3 1 4 7 6 7 5 2 3 7 4 6 3 2 2 0 2 1 3 4 2 5 3
9 9 10 11 12 13 15 17 18 20 18 10 7 9 10 9 8 7 7 12 4 5 4 3 4 2 5 5 6 9 4 3 1 4 4 3 1 3 3 4 3 6 5 3 4 3 4
9 10 10 11 12 14 16 18 20 22 23 13 7 9 10 8 4 4 5 3 5 4 6 0 3 3 4 8 5 5 4 4 2 3 1 3 3 3 5 2 3 4 3 3 1 3 6
10 10 11 11 12 14 16 18 20 22 23 17 7 9 9 7 2 0 1 4 4 2 2 5 5 4 7 3 3 4 2 2 2 1 2 3 1 5 7 5 5 2 3 3 1 2 4
9 11 12 12 12 14 16 18 20 22 23 18 7 8 8 6 5 4 5 4 1 1 2 3 4 4 5 2 3 4 3 3 2 4 4 3 4 7 4 5 6 2 5 4 5 3 5
10 11 12 13 13 14 16 19 21 22 24 20 8 7 6 1 3 4 3 3 1 1 4 7 4 3 1 2 4 3 1 1 2 4 3 1 6 5 3 1 4 3 5 2 6 4 4
10 11 12 13 14 16 17 19 21 23 24 22 8 5 4 4 4 3 4 2 2 1 5 5 5 2 2 1 5 6 2 1 3 4 3 4 7 6 3 3 3 2 4 3 1 5 4
10 10 11 13 15 16 18 20 22 23 24 23 7 4 2 1 3 4 4 4 3 6 3 6 4 6 6 1 3 4 3 2 3 3 3 3 1 3 6 6 2 5 3 7 4 3 3
11 10 11 13 15 17 18 20 22 23 23 20 5 2 4 1 1 4 5 3 5 6 3 8 3 5 4 4 4 4 4 6 3 5 5 6 3 6 4 5 5 5 5 3 4 4 4
11 11 10 12 14 17 18 20 21 23 24 16 3 2 4 3 1 3 2 5 7 5 4 3 3 5 2 4 2 6 4 6 4 3 3 4 6 3 4 2 1 4 3 4 4 3 3
12 10 11 11 13 16 18 20 21 22 24 14 2 2 1 3 2 3 5 5 6 5 2 4 5 3 5 4 1 3 2 2 3 4 3 3 4 2 2 2 1 4 4 3 3 2 3
14 11 9 11 12 14 17 19 21 22 23 11 1 2 1 1 3 2 5 3 3 3 1 1 1 2 3 5 5 4 4 1 4 2 1 1 1 2 3 1 1 2 1 1 2 1 2
15 12 9 9 12 14 16 18 21 22 22 10 1 2 1 2 2 4 3 4 3 3 3 4 3 2 1 1 2 3 3 2 2 6 2 1 2 3 2 3 1 2 1 1 2 3 3
15 12 11 9 10 13 14 16 19 23 22 7 2 2 1 3 3 1 3 3 1 3 3 2 2 2 3 2 0 2 2 3 1 1 4 3 1 2 3 2 1 1 2 2 3 2 1
18 14 13 10 10 11 12 14 16 20 21 7 1 2 0 1 2 1 3 1 2 2 3 3 4 3 3 3 1 3 2 2 1 1 1 1 2 3 7 4 1 2 2 1 3 3 2
19 17 14 13 10 10 10 12 13 16 17 5 2 2 3 3 1 5 3 3 3 2 2 3 3 2 1 2 4 2 2 2 2 1 3 0 1 5 5 3 0 3 3 3 4 3 3
23 20 16 14 12 10 9 10 11 13 13 2 2 3 3 2 2 2 3 3 3 3 3 2 2 5 4 3 1 3 2 2 1 1 1 1 3 1 5 6 3 4 5 4 5 3 4
25 23 19 15 13 11 8 8 9 10 8 1 1 2 2 1 1 3 2 4 6 3 5 3 3 2 4 4 4 3 2 2 1 2 1 0 3 2 4 1 3 5 7 6 4 3 6
28 25 21 18 16 12 11 7 7 8 4 2 2 1 3 3 1 3 4 4 4 4 3 2 4 1 3 3 1 1 2 1 2 1 1 1 0 2 4 3 6 6 6 7 4 4 5
30 27 23 20 19 15 13 9 5 4 3 1 2 3 3 4 3 4 2 3 5 3 2 2 3 4 1 3 3 1 1 3 3 2 3 0 1 2 4 4 2 4 1 4 5 4 6
31 28 26 24 23 18 15 13 8 5 2 3 4 4 3 3 2 2 2 3 1 1 2 2 1 1 2 3 2 3 3 2 1 2 2 2 2 1 1 2 7 1 3 4 5 4 7
34 31 30 29 24 21 19 16 12 10 7 6 4 5 3 3 5 2 2 2 3 3 3 1 1 2 3 2 1 2 3 3 2 0 3 3 4 3 1 0 4 2 2 2 2 4 4
34 31 30 28 25 25 21 17 16 14 11 9 6 6 3 2 3 4 4 4 4 2 2 1 2 1 2 2 2 3 3 1 2 4 4 2 1 4 3 4 8 5 4 1 2 5 5
26 25 25 25 22 22 20 18 18 18 15 12 6 8 4 3 4 5 3 4 2 2 3 2 2 1 2 2 3 3 3 3 1 4 5 6 6 4 2 2 7 6 4 6 5 2 3
16 16 17 20 19 17 16 15 15 15 17 14 5 9 7 3 3 3 7 11 5 5 4 2 3 3 4 2 1 1 2 1 3 3 2 3 6 4 8 6 4 7 5 5 4 3 4
Wind_Direction
25 18 20 15 11 8 7 4 357 348 342 335 316 305 313 324 332 344 350 349 343 346 341 346 360 2 37 48 300 357 351 344 348 220 190 167 333 212 231 304 224 241 284 222 257 278 289
19 16 15 14 9 8 6 3 359 350 343 334 318 304 306 308 317 333 344 351 348 344 356 9 354 2 32 47 330 349 336 339 344 173 157 155 171 186 120 266 267 197 284 286 281 263 262
18 13 13 9 11 9 6 3 2 355 343 335 323 311 302 299 305 319 335 353 339 349 348 5 2 12 42 257 346 352 349 334 6 134 82 71 128 135 277 337 354 295 330 314 258 250 236
9 15 14 7 8 8 6 5 2 359 348 329 327 322 308 295 298 307 319 341 316 346 320 335 329 333 267 332 346 350 6 56 38 153 126 133 134 112 137 223 250 91 22 234 245 201 73
8 8 8 7 6 6 4 4 4 2 352 340 329 325 315 300 293 298 304 323 305 309 317 319 351 93 326 333 347 342 324 329 136 124 144 111 132 97 25 196 83 53 212 194 203 174 134
10 3 6 8 5 6 6 5 4 4 357 341 335 339 327 314 289 292 302 318 304 316 1 269 313 39 329 300 307 313 328 320 254 153 159 209 123 159 190 186 189 183 157 154 188 185 71
9 4 1 5 6 7 9 6 6 6 2 353 341 347 339 332 297 291 322 316 19 351 33 212 255 197 270 319 291 294 291 332 336 32 7 315 33 313 327 280 26 326 133 132 251 194 94
5 360 355 4 6 6 5 6 5 4 4 358 345 350 350 341 318 235 7 86 126 183 333 249 276 272 266 289 313 316 331 44 51 105 308 26 1 308 289 359 13 328 111 186 18 166 92
356 354 356 359 359 0 2 2 4 2 360 358 346 351 358 20 107 86 89 96 100 160 96 300 243 267 269 306 290 280 8 353 61 28 35 102 263 310 24 18 356 330 156 181 153 123 51
345 346 352 353 354 355 356 358 1 1 357 358 346 350 357 47 119 112 76 75 91 170 70 304 347 291 311 273 295 271 260 224 337 331 7 94 311 2 8 57 8 38 350 89 146 103 154
337 342 347 350 350 350 351 354 357 359 357 358 351 353 5 56 122 107 141 122 120 76 44 284 301 280 329 336 300 338 3 35 352 313 74 303 3 12 9 299 5 271 344 130 77 83 86
327 336 344 348 346 347 347 349 352 355 357 357 356 4 41 89 85 122 137 140 112 43 299 331 308 348 360 292 292 301 356 14 262 1 26 328 317 350 353 310 228 299 54 48 56 82 46
313 325 336 343 344 343 344 346 349 350 353 356 358 49 49 30 121 138 146 95 38 89 322 315 321 341 338 304 328 3 20 10 40 48 357 349 13 333 33 326 347 57 48 17 9 13 212
309 314 322 334 340 342 343 345 347 347 347 355 9 160 53 52 116 152 149 55 72 246 262 339 331 315 328 353 308 12 25 3 1 53 77 66 347 3 334 132 238 5 107 141 181 189 241
300 306 311 327 337 341 343 345 347 347 348 348 102 150 38 4 147 170 76 50 192 202 252 327 323 47 332 340 287 60 58 310 305 10 70 58 324 299 280 319 38 330 45 189 100 78 58
291 294 298 318 330 336 341 345 347 348 349 351 284 153 127 34 154 119 73 196 212 227 208 158 79 49 350 315 13 19 351 309 314 38 28 308 329 221 279 195 283 64 231 76 4 211 279
278 280 277 304 319 327 337 344 349 349 353 354 4 43 117 140 159 53 116 220 208 224 192 165 198 288 268 336 311 339 311 312 346 311 291 44 107 296 342 18 196 359 315 64 127 140 159
266 265 265 288 307 320 330 341 351 352 356 3 68 26 351 162 46 43 132 179 297 226 215 235 180 221 243 252 359 322 294 234 321 225 338 353 168 254 240 272 217 243 251 149 127 234 73
253 251 259 273 291 308 319 333 348 356 357 343 77 235 217 303 105 341 277 252 209 210 235 218 221 195 210 246 227 198 238 209 235 334 212 322 329 355 344 352 22 268 232 144 93 68 214
244 241 247 263 271 292 307 323 342 352 347 347 61 6 326 51 135 137 177 237 252 216 258 243 245 186 221 254 238 277 261 227 217 224 170 82 180 177 205 245 66 281 218 196 147 113 190
235 234 242 250 260 278 293 315 332 348 347 357 33 244 190 277 309 158 164 192 203 245 219 203 254 236 193 214 264 236 332 339 283 312 351 93 261 217 262 253 250 242 244 209 199 219 164
230 230 237 242 247 262 273 297 318 344 345 60 205 145 11 249 287 171 194 228 205 201 166 230 230 218 212 219 212 215 175 196 229 336 294 181 278 341 288 304 209 269 249 235 241 260 272
227 227 232 237 242 249 255 269 303 338 343 170 171 145 111 266 209 131 220 218 217 163 195 186 184 310 263 264 190 242 197 166 198 249 292 335 94 42 272 353 328 295 239 183 191 202 167
223 225 231 235 238 239 246 248 261 304 355 163 174 135 103 266 183 216 244 200 203 210 222 193 153 148 304 331 313 306 258 226 214 206 162 235 138 143 268 333 354 252 127 172 205 249 214
225 229 233 235 234 236 239 238 231 241 238 196 176 164 146 240 209 283 240 228 133 72 266 236 255 168 109 24 3 350 332 351 41 65 129 127 111 346 68 274 289 137 209 173 174 273 195
230 232 237 236 232 233 237 232 225 223 218 193 154 165 143 130 244 141 212 221 194 185 341 239 349 322 73 100 74 250 243 244 245 139 49 83 87 120 129 195 252 245 208 240 190 300 225
229 232 231 229 230 231 231 233 222 220 219 207 185 175 139 170 255 139 207 200 152 130 163 283 197 127 31 107 170 199 256 209 223 197 176 142 120 191 196 238 283 233 186 161 114 236 173
157 165 176 184 189 193 203 209 215 219 215 208 203 192 192 177 266 192 202 187 126 129 155 187 54 333 48 155 169 228 199 237 263 190 183 175 159 204 142 206 277 160 82 171 215 225 195
115 122 136 138 141 143 150 152 170 191 206 207 208 202 203 163 251 241 242 252 242 176 137 161 184 174 200 103 232 120 244 240 189 247 126 244 200 189 186 215 235 209 207 215 174 195 224